Weather History for PAIM - December, 2012

Change the Weather History Date:

Sunday, December 9, 2012

  Actual Average Record
Temperature  
Mean Temperature 2 °F -  
Max Temperature 3 °F - - ()
Min Temperature -1 °F - - ()
Degree Days  
Heating Degree Days 64    
Moisture  
Dew Point -11 °F    
Average Humidity 56    
Maximum Humidity 60    
Minimum Humidity 51    
Precipitation  
Precipitation 0.00 in - - ()
Sea Level Pressure  
Sea Level Pressure 29.66 in    
Wind  
Wind Speed 19 mph (ESE)    
Max Wind Speed 28 mph    
Max Gust Speed 45 mph    
Visibility 10 miles    
Events      
T = Trace of Precipitation, MM = Missing Value Source: NWS Daily Summary

Daily Weather History Graph

Daily Weather History Graph

Search for Another Location

Airport or City:

Trip Planner

Search our weather history database for the weather conditions in past years. The results will help you decide how hot, cold, wet, or windy it might be!

Date:

Astronomy

Dec. 09, 2012 Rise Set
Actual Time 11:29 AM AKST 2:45 PM AKST
Civil Twilight 9:55 AM AKST 4:19 PM AKST
Nautical Twilight 8:40 AM AKST 5:34 PM AKST
Astronomical Twilight 7:35 AM AKST 6:38 PM AKST
Moon 5:30 AM AKST (12/9) 1:34 PM AKST (12/9)
Length of Visible Light 6h 23m
Length of Day
3h 15m
Waning Crescent, 17% of the Moon is Illuminated
Dec 9
Waning Crescent
Dec 12
New
Dec 19
First Quarter
Dec 28
Full
Jan 4
Last Quarter

Hourly Weather History & Observations

Time (AKST) Temp. Windchill Dew Point Humidity Pressure Visibility Wind Dir Wind Speed Gust Speed Precip Events Conditions
12:55 AM -0.4 °F -25.6 °F -11.6 °F 59% 29.68 in 10.0 mi East 27.6 mph 44.9 mph N/A   Mostly Cloudy
1:55 AM -0.6 °F -25.4 °F -11.7 °F 59% 29.68 in 10.0 mi East 26.5 mph 41.4 mph N/A   Mostly Cloudy
3:55 AM 0.7 °F -21.9 °F -11.9 °F 56% 29.64 in 10.0 mi East 21.9 mph 35.7 mph N/A   Mostly Cloudy
4:55 AM 0.5 °F -22.6 °F -11.9 °F 56% 29.63 in 10.0 mi East 23.0 mph 39.1 mph N/A   Scattered Clouds
5:55 AM 1.2 °F -21.7 °F -11.9 °F 54% 29.64 in 10.0 mi East 23.0 mph 33.4 mph N/A   Mostly Cloudy
6:55 AM 0.9 °F -20.7 °F -11.9 °F 55% 29.63 in 10.0 mi East 19.6 mph 33.4 mph N/A   Mostly Cloudy
7:55 AM 1.8 °F -18.9 °F -11.9 °F 53% 29.62 in 10.0 mi East 18.4 mph 34.5 mph N/A   Mostly Cloudy
8:55 AM 2.3 °F -18.2 °F -11.4 °F 53% 29.62 in 10.0 mi East 18.4 mph 29.9 mph N/A   Partly Cloudy
9:55 AM 2.3 °F -18.2 °F -11.6 °F 52% 29.62 in 10.0 mi East 18.4 mph 31.1 mph N/A   Partly Cloudy
10:55 AM 1.2 °F -17.1 °F -11.9 °F 54% 29.64 in 10.0 mi ESE 13.8 mph 31.1 mph N/A   Clear
11:55 AM 1.4 °F -20.5 °F -12.3 °F 53% 29.65 in 10.0 mi East 20.7 mph 32.2 mph N/A   Clear
12:55 PM 2.8 °F -16.4 °F -11.6 °F 51% 29.65 in 10.0 mi East 16.1 mph 28.8 mph N/A   Mostly Cloudy
1:55 PM 1.6 °F -19.7 °F -11.9 °F 53% 29.65 in 10.0 mi ESE 19.6 mph 26.5 mph N/A   Clear
2:55 PM 1.8 °F -16.4 °F -11.2 °F 55% 29.66 in 10.0 mi ESE 13.8 mph 24.2 mph N/A   Mostly Cloudy
3:55 PM 1.9 °F -12.9 °F -10.7 °F 56% 29.67 in 10.0 mi East 9.2 mph 19.6 mph N/A   Mostly Cloudy
4:55 PM 2.5 °F -11.1 °F -10.1 °F 56% 29.67 in 10.0 mi SE 8.1 mph 19.6 mph N/A   Mostly Cloudy
5:55 PM 2.3 °F -11.4 °F -9.6 °F 58% 29.68 in 10.0 mi SE 8.1 mph 18.4 mph N/A   Partly Cloudy
6:55 PM 2.7 °F -9.7 °F -10.3 °F 55% 29.68 in 10.0 mi Variable 6.9 mph - N/A   Clear
7:55 PM 3.0 °F -14.1 °F -8.9 °F 58% 29.69 in 10.0 mi ESE 12.7 mph 19.6 mph N/A   Partly Cloudy
8:55 PM 3.2 °F -9.1 °F -9.4 °F 56% 29.54 in 10.0 mi Variable 6.9 mph - N/A   Mostly Cloudy
9:55 PM 1.2 °F -13.7 °F -11.0 °F 57% 29.70 in 10.0 mi SE 9.2 mph 17.3 mph N/A   Mostly Cloudy
10:55 PM -0.6 °F -10.6 °F -11.6 °F 60% 29.72 in 10.0 mi Variable 4.6 mph - N/A   Partly Cloudy
11:55 PM -1.1 °F -15.5 °F -12.1 °F 60% 29.73 in 10.0 mi South 8.1 mph - N/A   Clear